Flag for Poland Weather past 2 weeks in Bielsko-Biała, Poland

Now
69 °F

Clear.


Feels Like: 69 °F
Forecast: 63 / 92 °F
Wind: 1 mph from Southwest

Location: Katowice

Current Time: Aug 31, 2015 at 12:54:19 AM

Latest Report: Aug 30, 2015 at 11:00 PM


Visibility: 13 mi

Pressure: 30.08 "Hg

Humidity: 71%

Dew point: 60 °F

Location of Bielsko-BiałaLocation

Historic Weather in Bielsko-Biała — Graph

°F

Bielsko-Biała temperature yesterday

Maximum temperature yesterday: 93 °F (at 4:00 PM)
Minimum temperature yesterday: 61 °F (at 2:00 AM)
Average temperature yesterday: 76 °F

Past Weeks' High & Low Weather Summary

 TemperatureHumidityPressure
High93 °F (Aug 30, 4:00 PM)98% (Aug 26, 3:00 AM)30.30 "Hg (Aug 26, 3:00 AM)
Low49 °F (Aug 22, 7:00 AM)26% (Aug 20, 2:00 PM)29.78 "Hg (Aug 16, 10:00 AM)
Average67 °F62%30.05 "Hg
* Reported Midnight between Aug 15 and Aug 16 — Aug 30 11:00 PM, Bielsko-Biała, Weather by CustomWeather, © 2015

Note: Actual official high and low records may vary slightly from our data, if they occured in-between our weather recording intervals... More about our weather records

Advertising

Bielsko-Biała weather history for previous 24 hours

 ConditionsComfort  
Time TempWeatherWind HumidityBarometerVisibility
11:00 PM
Sun, Aug 30
69 °FClear.1 mph71%30.08 "Hg12 mi
10:00 PM71 °FClear.1 mph66%30.09 "Hg12 mi
9:00 PM71 °FPassing clouds.2 mph61%30.09 "Hg12 mi
8:00 PM79 °FPassing clouds.1 mph48%30.07 "Hg9 mi
7:00 PM89 °FPartly sunny.2 mph31%30.03 "Hg19 mi
6:00 PM92 °FScattered clouds.3 mph28%30.02 "Hg19 mi
5:00 PM93 °FPartly sunny.2 mph29%30.03 "Hg12 mi
4:00 PM93 °FPartly sunny.5 mph29%30.04 "Hg12 mi
3:00 PM93 °FPartly sunny.3 mph30%30.06 "Hg12 mi
2:00 PM92 °FPartly sunny.1 mph32%30.09 "Hg19 mi
1:00 PM91 °FScattered clouds.3 mph32%30.11 "Hg19 mi
12:00 PM87 °FPassing clouds.2 mph43%30.13 "Hg12 mi
11:00 AM83 °FPassing clouds.3 mph51%30.15 "Hg12 mi
10:00 AM80 °FPassing clouds.3 mph55%30.16 "Hg12 mi
9:00 AM74 °FPassing clouds.2 mph73%30.18 "Hg9 mi
8:00 AM68 °FPassing clouds.1 mph87%30.20 "Hg6 mi
7:00 AM63 °FFog.1 mph95%30.21 "Hg4 mi
6:00 AM61 °FFog.1 mph94%30.22 "Hg3 mi
5:00 AM62 °FFog.1 mph95%30.22 "Hg5 mi
4:00 AM62 °FFog.1 mph95%30.23 "Hg5 mi
3:00 AM62 °FFog.1 mph95%30.24 "Hg5 mi
2:00 AM61 °FClear.1 mph93%30.25 "Hg6 mi
1:00 AM64 °FClear.No wind93%30.25 "Hg6 mi
12:00 AM65 °FClear.1 mph90%30.25 "Hg6 mi
Weather by CustomWeather, © 2015

See weather overviewHow to use our weather pages